TimeAKST,TemperatureF,Dew PointF,Humidity,Sea Level PressureIn,VisibilityMPH,Wind Direction,Wind SpeedMPH,Gust SpeedMPH,PrecipitationIn,Events,Conditions,WindDirDegrees,DateUTC
12:16 AM,-20.2,-29.2,63,29.37,10.0,NNE,6.9,-,N/A,,Partly Cloudy,20,2013-02-23 09:16:00
12:36 AM,-20.2,-9999,N/A,29.37,10.0,NNE,6.9,-,N/A,,Clear,20,2013-02-23 09:36:00
12:56 AM,-20.2,-27.4,69,29.36,10.0,NNE,8.1,-,N/A,,Clear,30,2013-02-23 09:56:00
1:16 AM,-20.2,-9999,N/A,29.35,10.0,NNE,8.1,-,N/A,,Clear,20,2013-02-23 10:16:00
1:36 AM,-22.0,-9999,N/A,29.35,10.0,North,9.2,-,N/A,,Clear,10,2013-02-23 10:36:00
1:56 AM,-22.0,-29.2,69,29.34,10.0,North,9.2,-,N/A,,Clear,360,2013-02-23 10:56:00
2:16 AM,-20.2,-9999,N/A,29.32,10.0,North,9.2,-,N/A,,Clear,10,2013-02-23 11:16:00
2:36 AM,-20.2,-27.4,69,29.32,10.0,North,9.2,-,N/A,,Clear,10,2013-02-23 11:36:00
2:56 AM,-18.4,-25.6,70,29.31,10.0,NNE,10.4,-,N/A,,Clear,20,2013-02-23 11:56:00
3:16 AM,-14.8,-18.4,84,29.31,10.0,NNE,12.7,-,N/A,,Clear,20,2013-02-23 12:16:00
3:36 AM,-16.6,-27.4,58,29.31,10.0,North,9.2,-,N/A,,Clear,10,2013-02-23 12:36:00
3:56 AM,-16.6,-25.6,64,29.30,10.0,North,9.2,-,N/A,,Clear,10,2013-02-23 12:56:00
4:16 AM,-18.4,-29.2,58,29.31,10.0,North,8.1,-,N/A,,Clear,10,2013-02-23 13:16:00
4:36 AM,-18.4,-27.4,63,29.30,10.0,North,8.1,-,N/A,,Clear,10,2013-02-23 13:36:00
4:56 AM,-20.2,-9999,N/A,29.30,10.0,North,6.9,-,N/A,,Clear,10,2013-02-23 13:56:00
5:16 AM,-20.2,-27.4,69,29.30,10.0,North,6.9,-,N/A,,Clear,10,2013-02-23 14:16:00
5:36 AM,-20.2,-9999,N/A,29.29,10.0,North,9.2,-,N/A,,Clear,10,2013-02-23 14:36:00
5:56 AM,-18.4,-23.8,76,29.29,10.0,North,9.2,-,N/A,,Clear,10,2013-02-23 14:56:00
6:16 AM,-18.4,-29.2,58,29.29,10.0,North,8.1,-,N/A,,Clear,10,2013-02-23 15:16:00
6:36 AM,-18.4,-27.4,63,29.28,10.0,North,9.2,-,N/A,,Clear,360,2013-02-23 15:36:00
6:56 AM,-18.4,-27.4,63,29.27,10.0,North,9.2,-,N/A,,Clear,10,2013-02-23 15:56:00
7:16 AM,-16.6,-22.0,76,29.27,10.0,North,10.4,-,N/A,,Clear,10,2013-02-23 16:16:00
7:36 AM,-14.8,-23.8,64,29.27,10.0,NNE,10.4,-,N/A,,Clear,20,2013-02-23 16:36:00
7:56 AM,-11.2,-18.4,70,29.27,10.0,NNE,11.5,-,N/A,,Clear,20,2013-02-23 16:56:00
8:16 AM,-11.2,-16.6,77,29.27,10.0,NNE,10.4,-,N/A,,Clear,20,2013-02-23 17:16:00
8:36 AM,-11.2,-22.0,59,29.27,10.0,North,10.4,-,N/A,,Clear,10,2013-02-23 17:36:00
8:56 AM,-13.0,-23.8,59,29.27,10.0,North,10.4,-,N/A,,Clear,10,2013-02-23 17:56:00
9:16 AM,-14.8,-23.8,64,29.27,10.0,North,9.2,-,N/A,,Clear,10,2013-02-23 18:16:00
9:36 AM,-14.8,-22.0,70,29.27,10.0,North,11.5,-,N/A,,Clear,360,2013-02-23 18:36:00
9:56 AM,-13.0,-20.2,70,29.27,10.0,North,12.7,-,N/A,,Clear,10,2013-02-23 18:56:00
10:16 AM,-13.0,-22.0,64,29.27,10.0,North,12.7,-,N/A,,Clear,360,2013-02-23 19:16:00
10:36 AM,-13.0,-22.0,64,29.27,10.0,North,11.5,-,N/A,,Clear,10,2013-02-23 19:36:00
10:56 AM,-13.0,-20.2,70,29.27,10.0,North,12.7,-,N/A,,Clear,10,2013-02-23 19:56:00
11:16 AM,-11.2,-16.6,77,29.27,10.0,North,12.7,-,N/A,,Scattered Clouds,10,2013-02-23 20:16:00
11:36 AM,-9.4,-18.4,65,29.26,10.0,North,12.7,-,N/A,,Partly Cloudy,10,2013-02-23 20:36:00
11:56 AM,-9.4,-18.4,65,29.26,10.0,North,15.0,-,N/A,,Clear,10,2013-02-23 20:56:00
12:16 PM,-9.4,-16.6,71,29.27,10.0,North,12.7,-,N/A,,Clear,360,2013-02-23 21:16:00
12:36 PM,-7.6,-11.2,84,29.27,10.0,North,13.8,-,N/A,,Clear,360,2013-02-23 21:36:00
12:56 PM,-7.6,-11.2,84,29.27,10.0,North,13.8,-,N/A,,Clear,360,2013-02-23 21:56:00
1:16 PM,-7.6,-14.8,71,29.27,10.0,North,12.7,-,N/A,,Clear,360,2013-02-23 22:16:00
1:36 PM,-5.8,-23.8,42,29.28,10.0,North,13.8,-,N/A,,Clear,360,2013-02-23 22:36:00
1:56 PM,-5.8,-14.8,65,29.28,10.0,North,13.8,-,N/A,,Clear,360,2013-02-23 22:56:00
2:16 PM,-5.8,-29.2,32,29.28,10.0,North,12.7,-,N/A,,Clear,360,2013-02-23 23:16:00
2:36 PM,-5.8,-25.6,38,29.28,10.0,North,11.5,-,N/A,,Clear,360,2013-02-23 23:36:00
2:56 PM,-5.8,-18.4,55,29.28,10.0,North,12.7,-,N/A,,Clear,360,2013-02-23 23:56:00
3:16 PM,-4.0,-11.2,71,29.28,10.0,North,15.0,-,N/A,,Clear,360,2013-02-24 00:16:00
3:36 PM,-4.0,-11.2,71,29.28,10.0,North,12.7,-,N/A,,Clear,360,2013-02-24 00:36:00
3:56 PM,-4.0,-11.2,71,29.29,10.0,North,15.0,-,N/A,,Clear,360,2013-02-24 00:56:00
4:16 PM,-4.0,-11.2,71,29.29,10.0,North,16.1,-,N/A,,Clear,360,2013-02-24 01:16:00
4:36 PM,-4.0,-9999,N/A,29.29,10.0,North,16.1,-,N/A,,Partly Cloudy,360,2013-02-24 01:36:00
4:56 PM,-4.0,-11.2,71,29.29,10.0,North,15.0,-,N/A,,Partly Cloudy,360,2013-02-24 01:56:00
5:16 PM,-5.8,-11.2,77,29.30,10.0,North,11.5,-,N/A,,Clear,360,2013-02-24 02:16:00
5:36 PM,-5.8,-13.0,71,29.31,10.0,North,12.7,-,N/A,,Clear,360,2013-02-24 02:36:00
5:56 PM,-5.8,-14.8,65,29.31,10.0,North,11.5,-,N/A,,Clear,360,2013-02-24 02:56:00
6:16 PM,-5.8,-14.8,65,29.31,10.0,North,11.5,-,N/A,,Clear,350,2013-02-24 03:16:00
6:36 PM,-7.6,-18.4,59,29.31,10.0,North,9.2,-,N/A,,Clear,350,2013-02-24 03:36:00
6:56 PM,-9.4,-16.6,71,29.32,10.0,NNW,11.5,-,N/A,,Clear,340,2013-02-24 03:56:00
7:16 PM,-9.4,-16.6,71,29.32,10.0,North,12.7,-,N/A,,Clear,350,2013-02-24 04:16:00
7:36 PM,-9.4,-18.4,65,29.32,10.0,North,12.7,-,N/A,,Clear,350,2013-02-24 04:36:00
7:56 PM,-9.4,-18.4,65,29.33,10.0,North,11.5,-,N/A,,Clear,350,2013-02-24 04:56:00
8:16 PM,-9.4,-20.2,59,29.34,10.0,NNW,10.4,-,N/A,,Clear,340,2013-02-24 05:16:00
8:36 PM,-11.2,-18.4,70,29.35,10.0,NNW,10.4,-,N/A,,Clear,340,2013-02-24 05:36:00
8:56 PM,-11.2,-18.4,70,29.35,10.0,NNW,11.5,-,N/A,,Clear,330,2013-02-24 05:56:00
9:16 PM,-11.2,-18.4,70,29.36,10.0,NNW,12.7,-,N/A,,Clear,330,2013-02-24 06:16:00
9:36 PM,-11.2,-18.4,70,29.36,10.0,NNW,11.5,-,N/A,,Clear,340,2013-02-24 06:36:00
9:56 PM,-9.4,-18.4,65,29.37,10.0,NNW,10.4,-,N/A,,Clear,340,2013-02-24 06:56:00
10:16 PM,-9.4,-16.6,71,29.37,10.0,NNW,12.7,-,N/A,,Clear,340,2013-02-24 07:16:00
10:36 PM,-9.4,-18.4,65,29.38,10.0,NNW,11.5,-,N/A,,Clear,340,2013-02-24 07:36:00
10:56 PM,-9.4,-18.4,65,29.39,10.0,NNW,11.5,-,N/A,,Clear,340,2013-02-24 07:56:00
11:16 PM,-9.4,-18.4,65,29.40,10.0,NNW,10.4,-,N/A,,Mostly Cloudy,340,2013-02-24 08:16:00
11:36 PM,-9.4,-18.4,65,29.40,10.0,NNW,9.2,-,N/A,,Overcast,340,2013-02-24 08:36:00
11:56 PM,-7.6,-16.6,65,29.41,10.0,NNW,10.4,-,N/A,,Overcast,340,2013-02-24 08:56:00